Flag for U.S.A. Weather past 2 weeks in Ann Arbor, Michigan, U.S.A.

41 °F


Feels Like: 41 °F
Forecast: 39 / 65 °F
Wind: No wind

Location: Ann Arbor Municipal Airport

Current Time: Oct 10, 2015 at 12:37:15 AM

Latest Report: Oct 9, 2015 at 11:53 PM

Visibility: 10 mi

Pressure: 30.19 "Hg

Humidity: 96%

Dew point: 40 °F

Location of Ann ArborLocation

Historic Weather in Ann Arbor — Graph


Ann Arbor temperature yesterday

Maximum temperature yesterday: 66 °F (at 12:53 AM)
Minimum temperature yesterday: 44 °F (at 10:53 PM)
Average temperature yesterday: 59 °F

Past Weeks' High & Low Weather Summary

High79 °F (Sep 25, 1:53 PM)100% (Sep 25, 8:53 AM)30.37 "Hg (Sep 25, 8:53 AM)
Low42 °F (Oct 8, 5:53 AM)33% (Oct 2, 1:53 PM)29.84 "Hg (Oct 9, 3:53 AM)
Average59 °F75%30.15 "Hg
* Reported Sep 24 10:53 PM — Oct 9 10:53 PM, Ann Arbor, Weather by CustomWeather, © 2015

Note: Actual official high and low records may vary slightly from our data, if they occured in-between our weather recording intervals... More about our weather records


Ann Arbor weather history for previous 24 hours

Time TempWeatherWind HumidityBarometerVisibility
10:53 PM
Fri, Oct 9
44 °FClear.No wind89%30.19 "Hg10 mi
9:53 PM54 °FPassing clouds.3 mph72%30.16 "Hg10 mi
8:53 PM56 °FPassing clouds.6 mph67%30.15 "Hg10 mi
7:53 PM57 °FPartly sunny.8 mph64%30.13 "Hg10 mi
6:53 PM58 °FOvercast.8 mph62%30.11 "Hg10 mi
5:53 PM59 °FMostly cloudy.9 mph64%30.08 "Hg10 mi
4:53 PM60 °FOvercast.10 mph62%30.06 "Hg10 mi
3:53 PM61 °FMore clouds than sun.16 mph62%30.04 "Hg10 mi
2:53 PM59 °FMostly cloudy.10 mph67%30.04 "Hg10 mi
1:53 PM60 °FOvercast.13 mph67%30.03 "Hg10 mi
12:53 PM59 °FMore clouds than sun.14 mph69%30.03 "Hg10 mi
11:53 AM58 °FMostly cloudy.14 mph72%30.01 "Hg10 mi
10:53 AM58 °FMostly cloudy.14 mph75%29.99 "Hg10 mi
9:53 AM58 °FMostly cloudy.10 mph78%29.97 "Hg10 mi
8:53 AM58 °FBroken clouds.12 mph78%29.95 "Hg10 mi
7:53 AM60 °FMostly cloudy.13 mph83%29.91 "Hg9 mi
6:53 AM61 °FOvercast.9 mph83%29.88 "Hg9 mi
5:53 AM63 °FMostly cloudy.8 mph90%29.85 "Hg8 mi
5:00 AM63 °FPartly cloudy.7 mph90%29.85 "Hg9 mi
3:53 AM63 °FMostly cloudy.5 mph90%29.84 "Hg9 mi
2:53 AM63 °FMostly cloudy.5 mph90%29.85 "Hg9 mi
1:53 AM63 °FMostly cloudy.5 mph90%29.84 "Hg10 mi
12:53 AM66 °FMostly cloudy.5 mph78%29.85 "Hg10 mi
Weather by CustomWeather, © 2015

See weather overviewHow to use our weather pages